User: anonymous   Login
Location: Camp Creek
(33.9000°N, 111.8167°W)
Time: 14:30:58
(UTC-07:00)
Language:

Cosmos 1656 - Orbit

View from above orbital plane
View from above orbital plane
View from above satellite
View from above satellite

Ground track
Ground track

The orbit data is extracted from the following two-line orbital elements,

1 15755U 85042A   17235.30753698 -.00000084  00000-0 -16588-4 0  9997
2 15755  71.1087 221.8206 0037255 304.9931  54.7700 14.20411862670220
Epoch (UTC): 23 August 2017 07:22:51
Eccentricity: 0.0037255
inclination: 71.1087°
perigee height: 797 km
apogee height: 851 km
right ascension of ascending node: 221.8206°
argument of perigee: 304.9931°
revolutions per day: 14.20411862
mean anomaly at epoch: 54.7700°
orbit number at epoch: 67022

The dashed part of the orbit path shows where the satellite is in the earth's shadow,  

DLR